Location: Peebles
(55.6412°N, 3.1714°W)
Time: 18:05:18
(UTC+01:00)

FENGYUN 1C DEB - Pass Details

Date: 08 July 2022
Orbit: 835 x 1174 km, 99.6° (Epoch: 11 August)

Event Time Altitude Azimuth Distance (km) Brightness Sun altitude
Rises 23:05:53 0° 189° (S) 3,894 ? -7.1°
Reaches altitude 10° 23:08:44 10° 197° (SSW) 2,894 ? -7.3°
Maximum altitude 23:14:42 37° 263° (W) 1,524 ? -7.7°
Drops below altitude 10° 23:20:16 10° 330° (NNW) 2,694 ? -8.1°
Sets 23:22:51 0° 339° (NNW) 3,595 ? -8.2°
